Regional Weather Roundup
Issued by NWS Sterling, VA

Home | Current Version | Previous Version | Graphics & Text | Print | Product List | Glossary On
Versions: 1 2 3 4 5 6 7 8 9 10 11 12 13 14 15 16 17 18 19 20 21 22 23 24 25 26 27 28 29 30 31 32 33 34 35 36 37 38 39 40 41 42 43 44 45 46 47 48 49 50
000
ASUS41 KLWX 292010
RWRLWX

REGIONAL WEATHER ROUNDUP
NATIONAL WEATHER SERVICE BALTIMORE MD/WASHINGTON DC
400 PM EDT TUE JUL 29 2014

Note: "FAIR" indicates few or no clouds below 12,000 feet
with no significant weather and/or obstructions to visibility.
 TC=TEMPERATURE CELSIUS

 * =Non NWS site. Station does not report precipitation (e.g. rain,
    snow, etc.), thunder, or fog.

DCZ001-MDZ009-015-VAZ040>042-051-053>054-292100-
WASHINGTON METRO
  /KDAA//-FT BELVOIR

CITY           SKY/WX    TMP DP  RH WIND       PRES   REMARKS
WASHINGTON NAT MOSUNNY   76  48  37 N10G20    29.95S
DULLES         MOSUNNY   73  46  38 NW13G21   29.96R
ANDREWS AFB    MOSUNNY   73  49  42 NW13      29.94S
QUANTICO       MOSUNNY   77  50  38 NW13G21   29.95S
COLLEGE PARK*  MOSUNNY   73  48  40 NW8       29.94S
LEESBURG*      PTSUNNY   72  52  49 NW10      29.97R
MANASSAS*      MOSUNNY   75  50  41 NW16G24   29.95S
GAITHERSBURG*  MOSUNNY   72  52  49 W8        29.99R

$$

MDZ006>007-011-014-292100-
BALTIMORE METRO

CITY           SKY/WX    TMP DP  RH WIND       PRES   REMARKS
BWI AIRPORT    PTSUNNY   75  50  41 W12G17    29.93R
MD SCIENCE CTR   N/A     74  51  44 MISG      29.93R
MARTIN STATE   PTSUNNY   72  59  64 CALM      29.94S
ANNAPOLIS      SUNNY     73  51  46 W8        29.93S
FORT MEADE*    MOSUNNY   72  52  49 W8        29.96S

$$

MDZ012-015-019>023-292100-
MARYLAND EASTERN SHORE

CITY           SKY/WX    TMP DP  RH WIND       PRES   REMARKS
OCEAN CITY     MOSUNNY   74  61  63 S8        29.93S
SALISBURY      NOT AVBL
BAY BRIDGE AP*   N/A     73  46  38 W7        29.94S
CAMBRIDGE*     MOSUNNY   77  50  38 W8G16     29.94R
EASTON*        MOSUNNY   75  54  46 NW9       29.98

$$

MDZ017>025-292100-
SOUTHERN MARYLAND

CITY           SKY/WX    TMP DP  RH WIND       PRES   REMARKS
PATUXENT RIVER MOSUNNY   77  49  37 W14G23    29.93S
ST INIGOES     SUNNY     77  52  41 W9        29.93S
LEONARDTOWN*   MOSUNNY   73  50  43 NW9       29.95S

$$

MDZ003>005-292100-
NORTH CENTRAL MARYLAND

CITY           SKY/WX    TMP DP  RH WIND       PRES   REMARKS
FREDERICK*     PTSUNNY   73  66  78 W8G16     29.98R
HAGERSTOWN APT CLOUDY    69  49  48 NW14      29.96S
WESTMINSTER*   MOSUNNY   72  57  60 NW7       29.95S

$$

MDZ501>502-292100-
WESTERN MARYLAND

CITY           SKY/WX    TMP DP  RH WIND       PRES   REMARKS
OAKLAND*       CLOUDY    55  46  71 NW5       30.05R
CUMBERLAND*    PTSUNNY   70  45  40 NW7       30.03R

$$

VAZ025>031-292100-
SHENANDOAH VALLEY

CITY           SKY/WX    TMP DP  RH WIND       PRES   REMARKS
WINCHESTER*    CLOUDY    72  46  40 N8        29.97S
STAUNTON*      PTSUNNY   74  48  39 N6        29.98S

$$

WVZ021-048>050-054>055-292100-
EASTERN WEST VIRGINIA PANHANDLE

CITY           SKY/WX    TMP DP  RH WIND       PRES   REMARKS
MARTINSBURG    MOSUNNY   72  44  36 W14       29.98R
PETERSBURG*    PTSUNNY   71  43  36 W16       29.99S

$$

VAZ036>039-050-292100-
CENTRAL FOOTHILLS

CITY           SKY/WX    TMP DP  RH WIND       PRES   REMARKS
CHARLOTTESVILL MOSUNNY   76  52  43 N7        29.94F
ORANGE*        SUNNY     75  52  43 SW6       29.96S

$$

VAZ055>057-292100-
NORTH AND CENTRAL PIEDMONT

CITY           SKY/WX    TMP DP  RH WIND       PRES   REMARKS
FREDERICKSBRG* PTSUNNY   77  54  45 NW8       29.93S
STAFFORD*      MOSUNNY   76  52  42 NW9       29.98S

$$

NCZ024-NYZ072-PAZ021-071-VAZ022-071-292100-
OTHER REGIONAL OBSERVATIONS

CITY           SKY/WX    TMP DP  RH WIND       PRES   REMARKS
NEW YORK CITY  MOSUNNY   76  50  40 VRB5      29.91R
PHILADELPHIA   CLOUDY    75  53  46 VRB3      29.92R
PITTSBURGH     CLOUDY    66  50  56 W7        30.01S
ROANOKE        CLOUDY    77  48  35 VRB5      29.96F
RICHMOND       MOSUNNY   82  50  32 W7G17     29.93F
RALEIGH        MOSUNNY   78  56  46 NW5       29.94F

$$

ANZ530>537-292100-
MARINE OBSERVATIONS

STATION/POSITION TIME  TEMP    WIND        PRES
                       AIR SEA DIR/SP/G
                 (UTC) (F)     (DEG/KT/KT) (MB)
THOMAS PT LIGHT  2000   71 78  270/ 14/ 15 1014.2S
BALT KEY BRIDGE  2000   72     250/  5/ 10 1013.1R
COVE POINT       2000   73     300/ 13/ 18 1013.5F
LEWISETTA        2000   74 77  350/  9/ 14 1013.4F
SOLOMONS ISLAND  2000      80                N/A
PINEY POINT      2000          330/ 13/ 14   N/A

$$



USA.gov is the U.S. government's official web portal to all federal, state and local government web resources and services.